GFSNW_prec_precacc24_177.txt.gz
Total_Precipitation_Accumulation
0.05 0.07 0.06 0.06 0.13 0.26 0.23 0.18 0.14 0.07 0.05 0.06 0.04 0.01 0.00 0.00 0.00 0.00 0.00 0.00 0.00 0.00 0.00 0.00 0.00 0.00 0.00 0.00 0.00 0.00 0.00 0.00 0.00 0.00 0.00 0.00 0.00 0.00 0.00 0.04 0.02 0.04 0.10 0.09
0.06 0.09 0.07 0.08 0.15 0.39 0.30 0.28 0.15 0.15 0.21 0.16 0.05 0.01 0.00 0.00 0.00 0.00 0.00 0.00 0.00 0.00 0.00 0.00 0.00 0.00 0.00 0.00 0.00 0.00 0.00 0.00 0.00 0.00 0.00 0.00 0.00 0.00 0.00 0.00 0.02 0.03 0.08 0.04
0.12 0.11 0.20 0.19 0.19 0.30 0.44 0.62 0.50 0.43 0.47 0.13 0.03 0.03 0.03 0.01 0.00 0.00 0.00 0.00 0.00 0.00 0.00 0.00 0.00 0.00 0.00 0.00 0.00 0.00 0.00 0.00 0.00 0.00 0.00 0.02 0.01 0.00 0.00 0.03 0.08 0.06 0.06 0.04
0.18 0.25 0.23 0.29 0.42 0.43 0.70 0.84 0.57 0.28 0.49 0.16 0.05 0.03 0.03 0.01 0.01 0.02 0.01 0.02 0.01 0.02 0.08 0.01 0.00 0.00 0.00 0.00 0.00 0.00 0.00 0.00 0.00 0.00 0.00 0.00 0.00 0.00 0.00 0.01 0.01 0.03 0.02 0.01
0.21 0.32 0.44 0.48 0.36 0.66 1.45 1.10 0.46 0.28 0.19 0.12 0.20 0.19 0.13 0.04 0.02 0.08 0.13 0.05 0.01 0.09 0.13 0.02 0.00 0.01 0.01 0.00 0.00 0.00 0.00 0.00 0.00 0.00 0.00 0.00 0.00 0.00 0.00 0.00 0.00 0.00 0.00 0.00
0.20 0.31 0.46 0.54 0.69 1.03 1.72 0.91 0.41 0.54 0.36 0.20 0.34 0.35 0.17 0.10 0.14 0.24 0.14 0.11 0.13 0.13 0.05 0.03 0.03 0.02 0.01 0.00 0.01 0.01 0.01 0.02 0.03 0.02 0.00 0.02 0.03 0.00 0.00 0.00 0.00 0.00 0.00 0.00
0.16 0.31 0.39 0.49 0.54 1.06 1.03 0.58 0.47 0.72 0.43 0.16 0.14 0.10 0.13 0.13 0.12 0.22 0.07 0.10 0.16 0.06 0.05 0.04 0.03 0.01 0.01 0.01 0.00 0.00 0.02 0.04 0.11 0.11 0.08 0.13 0.02 0.00 0.00 0.00 0.00 0.01 0.02 0.01
0.21 0.33 0.46 0.46 0.50 0.68 0.69 0.55 0.90 0.94 0.48 0.11 0.03 0.02 0.03 0.05 0.09 0.21 0.19 0.09 0.12 0.18 0.27 0.27 0.13 0.03 0.02 0.00 0.00 0.00 0.01 0.06 0.16 0.16 0.07 0.04 0.00 0.00 0.00 0.02 0.03 0.01 0.01 0.02
0.14 0.32 0.44 0.45 0.43 0.54 0.69 0.53 0.69 0.92 0.67 0.16 0.02 0.08 0.08 0.14 0.11 0.08 0.04 0.04 0.12 0.24 0.40 0.37 0.25 0.08 0.04 0.04 0.03 0.02 0.02 0.06 0.24 0.22 0.23 0.06 0.01 0.05 0.00 0.01 0.02 0.01 0.03 0.08
0.20 0.30 0.37 0.46 0.37 0.36 0.63 0.56 0.61 0.85 0.64 0.08 0.02 0.09 0.11 0.14 0.17 0.16 0.06 0.08 0.11 0.17 0.31 0.35 0.19 0.13 0.10 0.10 0.06 0.09 0.10 0.13 0.17 0.12 0.22 0.05 0.00 0.02 0.02 0.04 0.06 0.01 0.02 0.04
0.25 0.28 0.37 0.37 0.35 0.31 0.52 0.47 0.55 0.79 0.49 0.10 0.05 0.07 0.10 0.16 0.22 0.27 0.26 0.26 0.23 0.31 0.37 0.25 0.12 0.09 0.08 0.07 0.04 0.08 0.17 0.27 0.24 0.20 0.29 0.08 0.00 0.04 0.07 0.07 0.02 0.00 0.03 0.04
0.25 0.24 0.30 0.33 0.28 0.31 0.47 0.57 0.46 0.72 0.71 0.24 0.05 0.02 0.02 0.06 0.10 0.26 0.38 0.38 0.32 0.41 0.37 0.30 0.27 0.20 0.16 0.14 0.13 0.11 0.14 0.21 0.37 0.33 0.17 0.08 0.03 0.06 0.08 0.04 0.01 0.01 0.01 0.02
0.27 0.26 0.27 0.33 0.26 0.28 0.47 0.50 0.50 0.87 0.67 0.23 0.06 0.02 0.00 0.01 0.02 0.10 0.30 0.21 0.30 0.35 0.40 0.44 0.34 0.18 0.12 0.15 0.09 0.12 0.14 0.22 0.29 0.26 0.12 0.17 0.13 0.02 0.01 0.01 0.03 0.03 0.02 0.02
0.27 0.27 0.34 0.36 0.37 0.30 0.54 0.51 0.48 0.64 0.47 0.32 0.04 0.00 0.02 0.02 0.02 0.05 0.06 0.05 0.12 0.19 0.23 0.38 0.36 0.24 0.13 0.13 0.17 0.21 0.19 0.21 0.31 0.38 0.24 0.19 0.16 0.09 0.04 0.01 0.01 0.02 0.03 0.04
0.32 0.25 0.29 0.37 0.44 0.48 0.69 0.57 0.39 0.34 0.49 0.48 0.16 0.02 0.01 0.03 0.05 0.06 0.09 0.08 0.07 0.12 0.18 0.22 0.14 0.09 0.10 0.06 0.06 0.03 0.01 0.08 0.16 0.22 0.16 0.08 0.06 0.01 0.01 0.02 0.02 0.02 0.02 0.05
0.36 0.30 0.34 0.42 0.50 0.78 1.11 1.19 0.64 0.35 0.44 0.41 0.17 0.10 0.06 0.11 0.14 0.15 0.22 0.19 0.21 0.22 0.18 0.14 0.11 0.07 0.12 0.08 0.03 0.00 0.02 0.05 0.10 0.13 0.11 0.07 0.02 0.01 0.02 0.03 0.00 0.01 0.06 0.15
0.39 0.39 0.45 0.51 0.69 0.77 0.59 0.52 0.34 0.19 0.32 0.46 0.19 0.05 0.05 0.05 0.18 0.29 0.31 0.36 0.34 0.24 0.23 0.15 0.07 0.06 0.12 0.12 0.01 0.00 0.00 0.00 0.01 0.01 0.01 0.00 0.00 0.00 0.00 0.00 0.00 0.00 0.00 0.01
0.47 0.63 0.69 0.80 0.70 0.79 0.51 0.31 0.33 0.41 0.31 0.23 0.17 0.03 0.08 0.06 0.07 0.25 0.36 0.39 0.31 0.30 0.30 0.19 0.05 0.08 0.12 0.10 0.00 0.00 0.00 0.00 0.00 0.00 0.00 0.00 0.00 0.00 0.00 0.00 0.00 0.00 0.00 0.00
0.75 0.96 1.16 0.90 0.70 0.67 0.42 0.44 0.59 0.63 0.53 0.29 0.09 0.03 0.12 0.08 0.12 0.12 0.23 0.27 0.23 0.21 0.17 0.05 0.11 0.12 0.10 0.01 0.00 0.00 0.00 0.00 0.00 0.00 0.00 0.00 0.00 0.00 0.00 0.00 0.00 0.00 0.00 0.00
0.68 0.72 0.97 0.72 0.45 0.36 0.37 0.77 0.94 0.87 0.50 0.19 0.12 0.03 0.09 0.13 0.24 0.30 0.24 0.22 0.19 0.14 0.04 0.06 0.13 0.04 0.00 0.00 0.00 0.00 0.02 0.03 0.01 0.02 0.01 0.01 0.00 0.00 0.00 0.00 0.00 0.00 0.00 0.00
0.42 0.49 0.72 0.55 0.45 0.61 0.68 0.70 0.56 0.45 0.29 0.06 0.01 0.02 0.12 0.15 0.14 0.18 0.27 0.31 0.28 0.21 0.09 0.09 0.09 0.01 0.00 0.00 0.00 0.01 0.04 0.04 0.03 0.02 0.01 0.01 0.01 0.03 0.08 0.11 0.08 0.05 0.02 0.01
0.16 0.36 0.62 0.45 0.41 0.47 0.47 0.34 0.22 0.12 0.07 0.03 0.00 0.01 0.02 0.08 0.08 0.15 0.16 0.29 0.51 0.44 0.42 0.31 0.06 0.01 0.00 0.02 0.04 0.11 0.08 0.06 0.03 0.01 0.02 0.02 0.01 0.00 0.00 0.01 0.03 0.05 0.08 0.08
0.26 0.41 0.42 0.24 0.27 0.34 0.19 0.17 0.12 0.10 0.05 0.04 0.05 0.03 0.03 0.04 0.05 0.11 0.09 0.15 0.13 0.27 0.52 0.23 0.03 0.03 0.01 0.13 0.47 0.33 0.04 0.01 0.02 0.00 0.00 0.00 0.00 0.00 0.00 0.00 0.00 0.00 0.01 0.03
0.23 0.23 0.17 0.22 0.26 0.11 0.07 0.07 0.07 0.07 0.07 0.09 0.11 0.07 0.04 0.03 0.05 0.05 0.07 0.08 0.09 0.09 0.04 0.02 0.06 0.02 0.00 0.00 0.05 0.01 0.00 0.00 0.00 0.00 0.00 0.00 0.00 0.00 0.00 0.00 0.00 0.00 0.00 0.00
0.20 0.12 0.13 0.10 0.03 0.01 0.01 0.00 0.02 0.02 0.06 0.11 0.23 0.32 0.29 0.30 0.07 0.02 0.03 0.05 0.04 0.01 0.01 0.07 0.02 0.00 0.00 0.00 0.00 0.00 0.00 0.00 0.00 0.00 0.00 0.00 0.00 0.00 0.01 0.05 0.01 0.00 0.00 0.00
0.06 0.03 0.02 0.02 0.02 0.02 0.01 0.02 0.02 0.02 0.12 0.33 0.57 0.68 0.52 0.47 0.08 0.05 0.02 0.01 0.00 0.02 0.04 0.01 0.00 0.00 0.00 0.00 0.00 0.00 0.00 0.00 0.00 0.00 0.00 0.00 0.00 0.00 0.00 0.06 0.02 0.00 0.00 0.00
0.01 0.02 0.01 0.01 0.02 0.04 0.03 0.01 0.01 0.02 0.15 0.48 0.62 0.40 0.27 0.26 0.20 0.04 0.02 0.02 0.02 0.01 0.00 0.00 0.00 0.00 0.00 0.00 0.00 0.00 0.00 0.00 0.00 0.00 0.00 0.00 0.00 0.00 0.00 0.00 0.00 0.00 0.00 0.00

GFSNW_prec_precacc24_180.txt.gz
Total_Precipitation_Accumulation
0.03 0.06 0.05 0.06 0.13 0.26 0.23 0.17 0.13 0.07 0.07 0.08 0.05 0.01 0.00 0.00 0.00 0.00 0.00 0.00 0.00 0.00 0.00 0.00 0.00 0.00 0.00 0.00 0.00 0.00 0.00 0.00 0.00 0.00 0.00 0.00 0.00 0.00 0.00 0.03 0.02 0.01 0.06 0.02
0.02 0.05 0.06 0.08 0.15 0.39 0.31 0.27 0.14 0.14 0.21 0.18 0.05 0.01 0.00 0.00 0.00 0.00 0.00 0.00 0.00 0.00 0.00 0.00 0.00 0.00 0.00 0.00 0.00 0.00 0.00 0.00 0.01 0.01 0.00 0.00 0.00 0.00 0.00 0.00 0.01 0.03 0.04 0.02
0.03 0.05 0.16 0.19 0.19 0.30 0.42 0.62 0.49 0.43 0.46 0.14 0.05 0.04 0.03 0.01 0.00 0.00 0.00 0.01 0.01 0.01 0.01 0.01 0.03 0.01 0.00 0.00 0.00 0.00 0.00 0.00 0.00 0.02 0.01 0.02 0.02 0.01 0.00 0.00 0.04 0.03 0.01 0.00
0.02 0.08 0.15 0.27 0.41 0.43 0.67 0.83 0.57 0.28 0.49 0.16 0.05 0.05 0.04 0.02 0.01 0.02 0.03 0.07 0.03 0.04 0.13 0.08 0.03 0.02 0.00 0.00 0.00 0.00 0.00 0.01 0.00 0.00 0.00 0.00 0.01 0.01 0.00 0.00 0.01 0.04 0.02 0.00
0.02 0.08 0.27 0.43 0.35 0.65 1.41 1.09 0.46 0.29 0.19 0.12 0.21 0.23 0.16 0.06 0.03 0.09 0.17 0.13 0.08 0.15 0.22 0.13 0.05 0.03 0.06 0.05 0.01 0.01 0.00 0.01 0.01 0.00 0.00 0.00 0.00 0.00 0.00 0.00 0.00 0.00 0.00 0.00
0.01 0.03 0.20 0.45 0.67 1.02 1.71 0.91 0.43 0.56 0.36 0.20 0.35 0.36 0.19 0.13 0.17 0.28 0.17 0.17 0.22 0.22 0.15 0.12 0.09 0.05 0.03 0.04 0.04 0.03 0.03 0.07 0.07 0.05 0.02 0.03 0.05 0.00 0.00 0.00 0.00 0.00 0.00 0.00
0.01 0.02 0.09 0.38 0.49 1.05 1.03 0.60 0.52 0.78 0.44 0.17 0.14 0.10 0.13 0.14 0.14 0.26 0.09 0.13 0.24 0.10 0.06 0.06 0.04 0.03 0.01 0.01 0.00 0.01 0.04 0.07 0.16 0.14 0.12 0.19 0.03 0.00 0.00 0.00 0.00 0.00 0.01 0.01
0.02 0.03 0.07 0.29 0.47 0.68 0.66 0.54 0.94 0.97 0.49 0.11 0.03 0.02 0.03 0.05 0.09 0.22 0.22 0.11 0.15 0.22 0.30 0.36 0.20 0.06 0.04 0.00 0.00 0.00 0.01 0.07 0.18 0.19 0.11 0.06 0.00 0.00 0.00 0.01 0.02 0.01 0.01 0.02
0.01 0.01 0.05 0.20 0.36 0.54 0.65 0.48 0.69 0.95 0.71 0.16 0.02 0.09 0.09 0.15 0.12 0.08 0.05 0.04 0.13 0.33 0.53 0.52 0.37 0.13 0.07 0.06 0.04 0.01 0.02 0.06 0.26 0.25 0.27 0.08 0.00 0.01 0.00 0.01 0.03 0.01 0.03 0.09
0.02 0.02 0.05 0.20 0.29 0.36 0.61 0.50 0.58 0.88 0.68 0.08 0.03 0.11 0.14 0.17 0.20 0.21 0.10 0.12 0.11 0.19 0.36 0.40 0.22 0.13 0.11 0.11 0.07 0.08 0.13 0.18 0.22 0.15 0.26 0.06 0.00 0.01 0.02 0.04 0.05 0.01 0.02 0.04
0.04 0.06 0.09 0.17 0.27 0.30 0.51 0.43 0.50 0.81 0.54 0.09 0.06 0.09 0.12 0.18 0.24 0.28 0.28 0.28 0.26 0.34 0.41 0.32 0.18 0.14 0.10 0.07 0.03 0.04 0.16 0.30 0.29 0.26 0.36 0.16 0.05 0.04 0.08 0.06 0.02 0.01 0.03 0.04
0.06 0.09 0.16 0.22 0.24 0.30 0.48 0.54 0.41 0.70 0.75 0.24 0.04 0.02 0.03 0.07 0.12 0.27 0.40 0.40 0.36 0.51 0.47 0.46 0.38 0.29 0.22 0.19 0.16 0.12 0.12 0.21 0.38 0.34 0.19 0.09 0.05 0.05 0.08 0.04 0.01 0.01 0.01 0.02
0.11 0.17 0.17 0.24 0.23 0.27 0.47 0.50 0.48 0.90 0.74 0.26 0.06 0.02 0.00 0.01 0.02 0.10 0.30 0.21 0.30 0.36 0.43 0.46 0.39 0.28 0.17 0.20 0.10 0.12 0.16 0.24 0.26 0.21 0.10 0.11 0.09 0.02 0.01 0.01 0.03 0.03 0.02 0.02
0.12 0.21 0.31 0.32 0.35 0.28 0.54 0.49 0.46 0.69 0.56 0.37 0.04 0.00 0.02 0.02 0.01 0.05 0.06 0.05 0.12 0.19 0.22 0.38 0.37 0.24 0.15 0.21 0.19 0.26 0.27 0.18 0.23 0.34 0.22 0.18 0.15 0.09 0.04 0.01 0.01 0.02 0.03 0.04
0.18 0.20 0.27 0.36 0.43 0.46 0.69 0.54 0.34 0.35 0.59 0.55 0.17 0.03 0.01 0.03 0.05 0.06 0.10 0.09 0.09 0.12 0.15 0.17 0.13 0.08 0.10 0.05 0.04 0.02 0.01 0.04 0.12 0.18 0.12 0.07 0.04 0.01 0.01 0.02 0.02 0.02 0.02 0.06
0.27 0.27 0.33 0.41 0.50 0.78 1.10 1.13 0.62 0.34 0.46 0.50 0.19 0.10 0.06 0.11 0.15 0.16 0.22 0.20 0.25 0.25 0.19 0.13 0.10 0.06 0.19 0.18 0.06 0.00 0.02 0.05 0.09 0.11 0.11 0.07 0.02 0.01 0.02 0.03 0.00 0.01 0.06 0.15
0.37 0.40 0.46 0.52 0.70 0.74 0.57 0.51 0.40 0.26 0.34 0.50 0.20 0.05 0.06 0.07 0.19 0.29 0.30 0.34 0.32 0.22 0.20 0.13 0.07 0.08 0.24 0.21 0.03 0.00 0.00 0.00 0.01 0.00 0.01 0.00 0.00 0.00 0.00 0.00 0.00 0.00 0.00 0.01
0.48 0.65 0.71 0.81 0.69 0.73 0.40 0.24 0.34 0.45 0.37 0.27 0.20 0.03 0.04 0.11 0.13 0.26 0.36 0.42 0.34 0.34 0.26 0.18 0.07 0.09 0.14 0.13 0.00 0.00 0.00 0.00 0.00 0.00 0.00 0.00 0.00 0.00 0.00 0.00 0.00 0.00 0.00 0.00
0.77 0.96 1.08 0.79 0.62 0.59 0.33 0.39 0.59 0.65 0.59 0.39 0.10 0.03 0.09 0.13 0.19 0.21 0.27 0.42 0.35 0.30 0.19 0.11 0.18 0.16 0.08 0.01 0.00 0.00 0.00 0.00 0.00 0.00 0.00 0.00 0.00 0.00 0.00 0.00 0.00 0.00 0.00 0.00
0.67 0.63 0.82 0.62 0.40 0.31 0.34 0.72 0.88 0.83 0.45 0.18 0.11 0.03 0.06 0.15 0.32 0.44 0.32 0.22 0.25 0.13 0.04 0.05 0.12 0.03 0.00 0.00 0.00 0.01 0.02 0.04 0.04 0.06 0.03 0.01 0.00 0.00 0.00 0.00 0.00 0.00 0.00 0.00
0.39 0.47 0.74 0.61 0.43 0.59 0.68 0.71 0.56 0.42 0.28 0.06 0.00 0.02 0.11 0.15 0.23 0.34 0.26 0.23 0.22 0.18 0.07 0.08 0.08 0.01 0.00 0.01 0.01 0.02 0.04 0.05 0.07 0.08 0.07 0.04 0.02 0.04 0.09 0.11 0.08 0.05 0.02 0.01
0.19 0.41 0.66 0.46 0.42 0.48 0.48 0.32 0.21 0.12 0.07 0.03 0.01 0.01 0.02 0.09 0.13 0.21 0.16 0.26 0.50 0.43 0.43 0.34 0.07 0.03 0.05 0.03 0.04 0.13 0.13 0.07 0.05 0.04 0.08 0.09 0.07 0.06 0.04 0.02 0.03 0.05 0.08 0.08
0.28 0.44 0.42 0.24 0.26 0.29 0.18 0.19 0.20 0.16 0.10 0.08 0.07 0.05 0.05 0.08 0.08 0.09 0.07 0.14 0.12 0.27 0.53 0.24 0.06 0.11 0.04 0.13 0.48 0.41 0.16 0.03 0.02 0.00 0.00 0.00 0.01 0.01 0.00 0.00 0.00 0.00 0.01 0.03
0.27 0.23 0.18 0.26 0.36 0.22 0.19 0.16 0.26 0.15 0.08 0.07 0.10 0.10 0.06 0.03 0.05 0.04 0.06 0.08 0.09 0.10 0.04 0.07 0.12 0.03 0.00 0.00 0.05 0.02 0.00 0.00 0.00 0.00 0.00 0.00 0.00 0.01 0.00 0.00 0.00 0.00 0.00 0.00
0.20 0.17 0.20 0.20 0.10 0.05 0.01 0.01 0.03 0.02 0.05 0.10 0.21 0.27 0.26 0.24 0.06 0.02 0.03 0.06 0.05 0.01 0.04 0.14 0.03 0.00 0.00 0.00 0.00 0.00 0.00 0.00 0.00 0.00 0.00 0.00 0.00 0.01 0.04 0.08 0.01 0.00 0.00 0.00
0.07 0.04 0.02 0.02 0.01 0.02 0.02 0.02 0.04 0.04 0.12 0.30 0.57 0.70 0.51 0.47 0.08 0.06 0.02 0.01 0.02 0.08 0.11 0.03 0.00 0.00 0.00 0.00 0.00 0.00 0.00 0.00 0.00 0.00 0.00 0.00 0.00 0.00 0.01 0.10 0.09 0.00 0.00 0.00
0.01 0.01 0.01 0.01 0.01 0.03 0.04 0.02 0.02 0.03 0.15 0.44 0.65 0.44 0.29 0.30 0.25 0.08 0.07 0.08 0.09 0.04 0.01 0.01 0.00 0.01 0.01 0.00 0.00 0.00 0.00 0.00 0.00 0.00 0.00 0.00 0.00 0.00 0.00 0.00 0.00 0.00 0.00 0.00

GFSNW_prec_precacc24_183.txt.gz
Total_Precipitation_Accumulation
0.00 0.01 0.03 0.06 0.13 0.26 0.23 0.17 0.12 0.04 0.06 0.11 0.06 0.02 0.00 0.00 0.00 0.00 0.00 0.00 0.00 0.00 0.00 0.00 0.00 0.00 0.00 0.00 0.00 0.00 0.00 0.00 0.00 0.00 0.00 0.00 0.00 0.00 0.00 0.05 0.11 0.05 0.06 0.05
0.00 0.00 0.02 0.05 0.14 0.39 0.32 0.27 0.14 0.12 0.19 0.19 0.06 0.01 0.00 0.00 0.00 0.00 0.00 0.00 0.00 0.00 0.00 0.01 0.00 0.00 0.00 0.00 0.00 0.00 0.00 0.00 0.01 0.02 0.00 0.00 0.00 0.00 0.00 0.01 0.03 0.11 0.09 0.04
0.00 0.00 0.02 0.08 0.17 0.30 0.42 0.62 0.49 0.42 0.44 0.14 0.05 0.04 0.03 0.02 0.00 0.00 0.00 0.01 0.01 0.02 0.02 0.02 0.04 0.01 0.00 0.00 0.00 0.00 0.00 0.00 0.00 0.03 0.01 0.02 0.02 0.01 0.00 0.00 0.06 0.06 0.04 0.00
0.00 0.00 0.01 0.05 0.18 0.37 0.64 0.79 0.56 0.28 0.49 0.17 0.06 0.06 0.05 0.02 0.02 0.02 0.03 0.08 0.04 0.07 0.22 0.16 0.06 0.04 0.02 0.00 0.00 0.00 0.01 0.06 0.00 0.00 0.00 0.00 0.01 0.01 0.00 0.01 0.02 0.06 0.03 0.00
0.01 0.01 0.02 0.05 0.16 0.50 1.25 1.05 0.46 0.29 0.19 0.12 0.22 0.24 0.19 0.08 0.04 0.09 0.18 0.15 0.10 0.18 0.28 0.19 0.13 0.11 0.16 0.15 0.03 0.02 0.02 0.04 0.02 0.02 0.00 0.00 0.00 0.00 0.00 0.00 0.00 0.00 0.01 0.01
0.00 0.01 0.01 0.04 0.25 0.67 1.40 0.88 0.43 0.56 0.35 0.19 0.35 0.36 0.19 0.13 0.18 0.30 0.20 0.20 0.28 0.25 0.17 0.18 0.17 0.11 0.08 0.10 0.08 0.04 0.05 0.17 0.20 0.16 0.03 0.05 0.07 0.00 0.00 0.00 0.00 0.00 0.00 0.00
0.01 0.01 0.01 0.02 0.10 0.64 0.89 0.60 0.53 0.81 0.45 0.16 0.14 0.10 0.13 0.14 0.14 0.27 0.10 0.14 0.29 0.14 0.10 0.10 0.05 0.03 0.01 0.01 0.00 0.01 0.04 0.08 0.20 0.21 0.15 0.30 0.06 0.00 0.00 0.00 0.00 0.00 0.00 0.00
0.02 0.02 0.03 0.03 0.08 0.32 0.54 0.53 0.94 0.99 0.50 0.11 0.02 0.02 0.03 0.05 0.09 0.22 0.23 0.12 0.16 0.25 0.34 0.41 0.23 0.06 0.05 0.01 0.00 0.00 0.01 0.08 0.20 0.21 0.13 0.07 0.00 0.00 0.00 0.02 0.02 0.01 0.01 0.02
0.01 0.01 0.00 0.02 0.04 0.26 0.48 0.45 0.67 0.95 0.71 0.15 0.02 0.09 0.09 0.16 0.14 0.10 0.06 0.04 0.15 0.39 0.58 0.58 0.44 0.18 0.11 0.10 0.06 0.05 0.05 0.07 0.26 0.27 0.28 0.07 0.00 0.01 0.01 0.01 0.02 0.01 0.03 0.10
0.02 0.02 0.01 0.01 0.00 0.10 0.44 0.44 0.53 0.85 0.67 0.07 0.03 0.10 0.14 0.20 0.25 0.25 0.11 0.14 0.11 0.21 0.41 0.48 0.27 0.14 0.11 0.12 0.07 0.08 0.15 0.28 0.41 0.28 0.29 0.07 0.01 0.02 0.01 0.03 0.06 0.05 0.06 0.08
0.04 0.04 0.03 0.01 0.01 0.04 0.31 0.33 0.44 0.79 0.56 0.10 0.06 0.09 0.12 0.18 0.27 0.35 0.33 0.27 0.26 0.42 0.62 0.42 0.30 0.21 0.14 0.10 0.04 0.03 0.10 0.22 0.30 0.39 0.53 0.31 0.12 0.10 0.13 0.08 0.14 0.14 0.05 0.05
0.05 0.05 0.03 0.02 0.03 0.07 0.34 0.42 0.33 0.68 0.76 0.24 0.04 0.02 0.03 0.07 0.12 0.27 0.41 0.40 0.36 0.54 0.53 0.57 0.43 0.27 0.20 0.20 0.18 0.14 0.13 0.20 0.37 0.36 0.22 0.11 0.07 0.03 0.05 0.02 0.02 0.02 0.02 0.02
0.09 0.08 0.06 0.03 0.02 0.16 0.38 0.43 0.44 0.87 0.72 0.27 0.06 0.02 0.00 0.01 0.02 0.10 0.30 0.21 0.29 0.36 0.47 0.50 0.40 0.31 0.18 0.20 0.13 0.16 0.17 0.23 0.35 0.32 0.15 0.08 0.04 0.01 0.00 0.01 0.03 0.03 0.02 0.02
0.07 0.10 0.13 0.11 0.10 0.13 0.48 0.47 0.46 0.69 0.56 0.39 0.04 0.00 0.02 0.02 0.01 0.05 0.06 0.05 0.12 0.19 0.22 0.38 0.36 0.24 0.15 0.22 0.19 0.20 0.30 0.37 0.25 0.24 0.17 0.15 0.07 0.07 0.04 0.01 0.01 0.02 0.03 0.04
0.12 0.09 0.07 0.15 0.24 0.31 0.62 0.51 0.30 0.35 0.60 0.55 0.17 0.03 0.01 0.03 0.05 0.06 0.10 0.09 0.09 0.13 0.17 0.18 0.12 0.08 0.10 0.05 0.04 0.02 0.02 0.04 0.11 0.08 0.09 0.06 0.03 0.01 0.01 0.02 0.02 0.02 0.02 0.06
0.14 0.12 0.14 0.21 0.33 0.63 1.02 0.99 0.51 0.28 0.47 0.61 0.24 0.10 0.06 0.11 0.15 0.16 0.22 0.20 0.25 0.27 0.22 0.15 0.09 0.06 0.20 0.19 0.07 0.01 0.01 0.03 0.04 0.05 0.07 0.07 0.02 0.01 0.02 0.03 0.00 0.01 0.06 0.15
0.17 0.22 0.29 0.37 0.55 0.69 0.55 0.49 0.41 0.27 0.37 0.65 0.27 0.05 0.07 0.07 0.19 0.28 0.31 0.35 0.32 0.23 0.23 0.15 0.07 0.08 0.30 0.26 0.03 0.00 0.00 0.00 0.01 0.00 0.01 0.00 0.00 0.00 0.00 0.00 0.00 0.00 0.00 0.01
0.30 0.50 0.63 0.75 0.68 0.74 0.41 0.24 0.34 0.46 0.43 0.32 0.20 0.03 0.03 0.10 0.16 0.34 0.37 0.39 0.33 0.33 0.26 0.14 0.05 0.09 0.14 0.13 0.00 0.00 0.00 0.00 0.00 0.00 0.00 0.00 0.00 0.00 0.00 0.00 0.00 0.00 0.00 0.00
0.69 0.93 1.09 0.81 0.63 0.58 0.32 0.38 0.58 0.67 0.61 0.39 0.11 0.03 0.07 0.11 0.22 0.30 0.37 0.48 0.39 0.29 0.19 0.12 0.21 0.23 0.15 0.03 0.01 0.00 0.00 0.00 0.00 0.00 0.00 0.00 0.00 0.01 0.00 0.00 0.00 0.00 0.00 0.00
0.68 0.64 0.81 0.61 0.39 0.30 0.32 0.62 0.81 0.79 0.44 0.20 0.11 0.03 0.05 0.11 0.31 0.49 0.59 0.43 0.45 0.20 0.07 0.08 0.15 0.05 0.01 0.01 0.02 0.03 0.02 0.03 0.04 0.06 0.06 0.04 0.01 0.01 0.01 0.01 0.00 0.00 0.00 0.00
0.38 0.43 0.69 0.65 0.38 0.49 0.62 0.64 0.50 0.37 0.26 0.06 0.00 0.02 0.09 0.10 0.20 0.33 0.35 0.23 0.17 0.12 0.06 0.07 0.06 0.03 0.06 0.06 0.04 0.02 0.02 0.04 0.07 0.10 0.16 0.13 0.07 0.07 0.12 0.13 0.09 0.05 0.02 0.01
0.18 0.43 0.67 0.39 0.35 0.45 0.46 0.32 0.22 0.13 0.08 0.04 0.01 0.01 0.03 0.09 0.11 0.31 0.22 0.20 0.32 0.35 0.42 0.33 0.07 0.10 0.13 0.04 0.04 0.12 0.12 0.09 0.05 0.04 0.08 0.11 0.09 0.07 0.06 0.03 0.03 0.05 0.08 0.08
0.31 0.46 0.42 0.23 0.26 0.29 0.20 0.21 0.22 0.21 0.16 0.15 0.09 0.11 0.11 0.14 0.12 0.12 0.03 0.09 0.12 0.27 0.53 0.24 0.11 0.14 0.04 0.13 0.48 0.41 0.16 0.02 0.02 0.00 0.00 0.00 0.01 0.01 0.00 0.00 0.00 0.00 0.01 0.03
0.31 0.25 0.19 0.27 0.42 0.30 0.27 0.21 0.31 0.32 0.15 0.03 0.06 0.11 0.08 0.05 0.07 0.04 0.02 0.06 0.10 0.10 0.04 0.17 0.26 0.03 0.00 0.00 0.05 0.02 0.00 0.00 0.00 0.00 0.00 0.00 0.00 0.02 0.02 0.00 0.00 0.00 0.00 0.00
0.24 0.19 0.23 0.27 0.19 0.13 0.09 0.02 0.05 0.04 0.02 0.04 0.17 0.24 0.25 0.15 0.03 0.01 0.02 0.06 0.05 0.02 0.11 0.27 0.06 0.00 0.00 0.00 0.00 0.00 0.00 0.00 0.00 0.00 0.00 0.00 0.00 0.01 0.04 0.11 0.04 0.00 0.00 0.00
0.07 0.05 0.02 0.02 0.02 0.03 0.02 0.02 0.05 0.06 0.09 0.27 0.50 0.62 0.45 0.39 0.07 0.06 0.02 0.02 0.04 0.16 0.25 0.07 0.00 0.00 0.00 0.00 0.00 0.00 0.00 0.00 0.00 0.00 0.00 0.00 0.00 0.00 0.01 0.11 0.12 0.00 0.00 0.00
0.02 0.01 0.01 0.01 0.01 0.01 0.03 0.02 0.02 0.04 0.11 0.33 0.48 0.46 0.31 0.32 0.28 0.12 0.11 0.22 0.31 0.13 0.02 0.01 0.01 0.02 0.01 0.00 0.00 0.00 0.00 0.00 0.00 0.00 0.00 0.00 0.00 0.00 0.00 0.00 0.00 0.00 0.00 0.00

GFSNW_prec_precacc24_186.txt.gz
Total_Precipitation_Accumulation
0.05 0.02 0.01 0.01 0.07 0.24 0.23 0.17 0.12 0.05 0.07 0.15 0.13 0.03 0.00 0.00 0.00 0.00 0.00 0.00 0.00 0.00 0.00 0.00 0.00 0.00 0.00 0.00 0.00 0.00 0.00 0.00 0.00 0.00 0.00 0.00 0.00 0.00 0.00 0.05 0.11 0.06 0.12 0.11
0.02 0.00 0.00 0.00 0.04 0.32 0.31 0.27 0.13 0.10 0.22 0.27 0.10 0.03 0.01 0.00 0.00 0.00 0.00 0.00 0.00 0.00 0.00 0.02 0.00 0.00 0.00 0.00 0.00 0.00 0.00 0.01 0.02 0.02 0.00 0.00 0.00 0.00 0.00 0.01 0.06 0.16 0.16 0.08
0.00 0.00 0.01 0.01 0.03 0.17 0.39 0.60 0.49 0.41 0.43 0.15 0.05 0.04 0.03 0.02 0.00 0.00 0.01 0.01 0.01 0.02 0.02 0.03 0.06 0.01 0.00 0.00 0.00 0.00 0.04 0.06 0.06 0.05 0.01 0.02 0.02 0.01 0.00 0.01 0.16 0.12 0.07 0.01
0.00 0.00 0.00 0.01 0.03 0.15 0.45 0.69 0.54 0.28 0.49 0.16 0.06 0.06 0.06 0.03 0.02 0.02 0.03 0.08 0.05 0.10 0.30 0.19 0.07 0.05 0.03 0.00 0.00 0.00 0.03 0.14 0.05 0.01 0.00 0.00 0.01 0.01 0.00 0.01 0.03 0.12 0.06 0.01
0.01 0.01 0.01 0.01 0.02 0.15 0.55 0.72 0.45 0.29 0.19 0.12 0.22 0.24 0.19 0.08 0.04 0.09 0.18 0.15 0.10 0.19 0.31 0.23 0.18 0.15 0.18 0.16 0.04 0.03 0.05 0.09 0.06 0.07 0.00 0.00 0.00 0.00 0.00 0.00 0.00 0.00 0.01 0.01
0.00 0.01 0.01 0.03 0.04 0.16 0.58 0.52 0.40 0.56 0.35 0.19 0.35 0.36 0.19 0.13 0.16 0.28 0.20 0.20 0.28 0.26 0.18 0.20 0.21 0.18 0.14 0.15 0.10 0.08 0.11 0.25 0.30 0.24 0.05 0.12 0.18 0.01 0.00 0.00 0.00 0.00 0.00 0.00
0.01 0.01 0.01 0.01 0.03 0.11 0.28 0.45 0.47 0.76 0.45 0.16 0.14 0.10 0.13 0.14 0.14 0.26 0.10 0.14 0.30 0.15 0.11 0.12 0.05 0.03 0.01 0.01 0.00 0.02 0.07 0.12 0.31 0.25 0.17 0.34 0.07 0.00 0.00 0.00 0.00 0.02 0.00 0.00
0.01 0.02 0.02 0.03 0.03 0.07 0.16 0.26 0.68 0.87 0.50 0.11 0.02 0.02 0.03 0.05 0.09 0.22 0.22 0.12 0.18 0.26 0.36 0.44 0.26 0.07 0.07 0.02 0.01 0.03 0.02 0.09 0.27 0.24 0.14 0.08 0.00 0.00 0.01 0.03 0.02 0.01 0.01 0.03
0.01 0.01 0.00 0.01 0.02 0.05 0.15 0.19 0.43 0.79 0.69 0.15 0.02 0.08 0.08 0.16 0.15 0.10 0.07 0.05 0.15 0.40 0.60 0.60 0.47 0.19 0.12 0.10 0.07 0.08 0.10 0.16 0.36 0.31 0.28 0.07 0.00 0.01 0.02 0.02 0.02 0.01 0.04 0.10
0.02 0.02 0.01 0.01 0.00 0.01 0.11 0.16 0.35 0.65 0.62 0.07 0.03 0.10 0.14 0.19 0.25 0.26 0.11 0.14 0.12 0.22 0.43 0.52 0.31 0.20 0.16 0.15 0.08 0.08 0.16 0.35 0.65 0.45 0.44 0.11 0.01 0.02 0.02 0.04 0.07 0.09 0.11 0.11
0.04 0.04 0.03 0.01 0.01 0.00 0.10 0.09 0.27 0.60 0.51 0.10 0.06 0.09 0.12 0.18 0.27 0.35 0.33 0.27 0.27 0.43 0.68 0.51 0.44 0.29 0.15 0.10 0.04 0.03 0.08 0.20 0.26 0.37 0.58 0.42 0.14 0.12 0.14 0.08 0.14 0.18 0.13 0.07
0.04 0.05 0.04 0.02 0.02 0.01 0.18 0.13 0.11 0.46 0.71 0.24 0.04 0.02 0.03 0.07 0.12 0.27 0.40 0.39 0.34 0.54 0.53 0.60 0.49 0.29 0.19 0.20 0.19 0.11 0.17 0.29 0.40 0.45 0.27 0.15 0.12 0.04 0.03 0.01 0.01 0.02 0.03 0.03
0.09 0.08 0.06 0.04 0.02 0.02 0.20 0.20 0.20 0.59 0.65 0.27 0.06 0.02 0.00 0.01 0.02 0.11 0.30 0.20 0.28 0.35 0.47 0.51 0.42 0.31 0.19 0.21 0.13 0.16 0.18 0.22 0.28 0.25 0.14 0.18 0.20 0.07 0.01 0.01 0.03 0.03 0.02 0.03
0.09 0.11 0.15 0.13 0.10 0.07 0.25 0.29 0.27 0.55 0.53 0.39 0.04 0.00 0.02 0.02 0.01 0.05 0.06 0.05 0.12 0.19 0.21 0.37 0.36 0.24 0.15 0.22 0.19 0.20 0.30 0.37 0.25 0.40 0.13 0.11 0.06 0.04 0.02 0.01 0.01 0.02 0.03 0.04
0.14 0.11 0.09 0.15 0.19 0.20 0.37 0.34 0.22 0.32 0.58 0.54 0.17 0.03 0.01 0.03 0.05 0.06 0.10 0.09 0.09 0.14 0.17 0.19 0.12 0.08 0.10 0.05 0.04 0.03 0.03 0.10 0.31 0.23 0.02 0.03 0.01 0.00 0.01 0.01 0.02 0.02 0.02 0.06
0.18 0.16 0.12 0.15 0.19 0.36 0.67 0.68 0.40 0.26 0.49 0.74 0.29 0.10 0.06 0.11 0.15 0.16 0.22 0.20 0.25 0.28 0.23 0.16 0.10 0.07 0.22 0.22 0.07 0.01 0.01 0.00 0.02 0.01 0.00 0.01 0.00 0.00 0.00 0.02 0.00 0.01 0.06 0.15
0.18 0.19 0.16 0.16 0.25 0.42 0.40 0.39 0.36 0.28 0.36 0.69 0.29 0.05 0.07 0.07 0.19 0.28 0.31 0.35 0.32 0.22 0.21 0.15 0.07 0.08 0.34 0.31 0.04 0.00 0.00 0.00 0.01 0.00 0.00 0.00 0.00 0.00 0.00 0.00 0.00 0.00 0.00 0.01
0.17 0.26 0.27 0.36 0.45 0.58 0.36 0.24 0.34 0.46 0.43 0.34 0.21 0.04 0.03 0.10 0.16 0.37 0.42 0.38 0.29 0.31 0.26 0.15 0.07 0.10 0.17 0.14 0.00 0.00 0.01 0.01 0.00 0.00 0.00 0.00 0.00 0.00 0.00 0.00 0.00 0.00 0.00 0.00
0.24 0.48 0.76 0.64 0.54 0.54 0.31 0.37 0.58 0.67 0.62 0.40 0.11 0.03 0.07 0.10 0.21 0.30 0.39 0.54 0.42 0.26 0.14 0.10 0.19 0.21 0.16 0.03 0.02 0.01 0.01 0.00 0.00 0.00 0.00 0.00 0.00 0.01 0.01 0.00 0.00 0.00 0.00 0.00
0.55 0.58 0.76 0.51 0.34 0.29 0.31 0.61 0.79 0.78 0.46 0.23 0.12 0.03 0.05 0.10 0.23 0.43 0.60 0.55 0.60 0.29 0.11 0.12 0.16 0.07 0.04 0.04 0.05 0.05 0.02 0.03 0.03 0.05 0.06 0.07 0.01 0.02 0.02 0.02 0.02 0.01 0.01 0.01
0.37 0.43 0.68 0.63 0.37 0.49 0.62 0.66 0.47 0.36 0.27 0.06 0.00 0.02 0.09 0.10 0.20 0.30 0.26 0.26 0.23 0.22 0.19 0.16 0.08 0.17 0.25 0.09 0.06 0.02 0.02 0.04 0.06 0.09 0.16 0.14 0.08 0.08 0.14 0.13 0.09 0.05 0.02 0.01
0.19 0.42 0.64 0.38 0.34 0.45 0.48 0.32 0.22 0.13 0.08 0.04 0.02 0.03 0.08 0.11 0.10 0.34 0.23 0.14 0.21 0.16 0.33 0.31 0.06 0.13 0.13 0.04 0.04 0.12 0.12 0.08 0.04 0.04 0.08 0.11 0.09 0.07 0.06 0.03 0.03 0.05 0.08 0.08
0.31 0.46 0.43 0.23 0.26 0.31 0.23 0.22 0.24 0.23 0.19 0.17 0.13 0.17 0.21 0.17 0.17 0.16 0.04 0.03 0.08 0.20 0.43 0.23 0.13 0.15 0.04 0.13 0.48 0.41 0.16 0.02 0.00 0.00 0.00 0.00 0.01 0.01 0.00 0.00 0.00 0.00 0.01 0.03
0.31 0.27 0.19 0.27 0.44 0.32 0.34 0.22 0.31 0.36 0.22 0.04 0.04 0.09 0.08 0.06 0.09 0.05 0.01 0.02 0.07 0.10 0.05 0.25 0.40 0.05 0.00 0.00 0.05 0.02 0.00 0.00 0.00 0.00 0.00 0.00 0.00 0.02 0.02 0.01 0.00 0.00 0.00 0.00
0.25 0.21 0.24 0.28 0.20 0.13 0.14 0.04 0.05 0.05 0.04 0.03 0.05 0.09 0.19 0.13 0.02 0.00 0.02 0.06 0.06 0.04 0.24 0.43 0.11 0.00 0.00 0.00 0.00 0.00 0.00 0.00 0.00 0.00 0.00 0.00 0.00 0.01 0.04 0.11 0.05 0.00 0.00 0.00
0.08 0.04 0.02 0.02 0.02 0.03 0.02 0.02 0.05 0.06 0.05 0.07 0.29 0.42 0.37 0.31 0.05 0.04 0.01 0.02 0.08 0.25 0.32 0.10 0.02 0.00 0.00 0.00 0.00 0.00 0.00 0.00 0.00 0.00 0.00 0.00 0.00 0.00 0.01 0.11 0.12 0.00 0.00 0.00
0.02 0.00 0.01 0.01 0.01 0.01 0.03 0.02 0.02 0.03 0.06 0.13 0.34 0.37 0.30 0.32 0.27 0.16 0.17 0.32 0.46 0.20 0.03 0.01 0.01 0.02 0.01 0.00 0.00 0.00 0.00 0.00 0.00 0.00 0.00 0.00 0.00 0.00 0.00 0.00 0.00 0.00 0.00 0.00